Datum;Zeit;Leistung;Tagesertrag;Temperatur WR
14.05.2020;11:50:00;7117;20.1;38
14.05.2020;12:00:00;6664;21.2;35
14.05.2020;12:10:00;6461;22.3;38
14.05.2020;12:20:00;8117;23.5;37
14.05.2020;12:30:00;6480;24.7;35
14.05.2020;12:40:00;8981;26.1;36
14.05.2020;12:50:00;8494;27.5;38
14.05.2020;13:00:00;9616;29.0;37
14.05.2020;13:10:00;8829;30.6;35
14.05.2020;13:20:00;8986;32.0;35
14.05.2020;13:30:00;11773;33.8;37
14.05.2020;13:40:00;10893;35.9;37
14.05.2020;13:50:00;7804;37.4;35
14.05.2020;14:00:00;6812;38.6;37
14.05.2020;14:10:00;6152;39.6;37
14.05.2020;14:20:00;7297;40.9;35
14.05.2020;14:30:00;4515;41.7;38
14.05.2020;14:40:00;5060;42.5;35
14.05.2020;14:50:00;5479;43.4;38
14.05.2020;15:00:00;5180;44.3;35
14.05.2020;15:10:00;4885;45.1;38
14.05.2020;15:20:00;6518;46.1;36
14.05.2020;15:30:00;5294;47.1;38
14.05.2020;15:40:00;6187;48.1;37
14.05.2020;15:50:00;5033;48.9;37
14.05.2020;16:00:00;5803;49.9;37
14.05.2020;16:10:00;5836;50.8;36
14.05.2020;16:20:00;5208;51.7;37
14.05.2020;16:30:00;5036;52.5;35
14.05.2020;16:40:00;5340;53.4;37
14.05.2020;16:50:00;4606;54.2;36
14.05.2020;17:00:00;5262;55.0;37
14.05.2020;17:10:00;4237;55.7;36
14.05.2020;17:20:00;3654;56.4;36
14.05.2020;17:30:00;4540;57.1;39
14.05.2020;17:40:00;4011;57.8;36
14.05.2020;17:50:00;3118;58.4;38
14.05.2020;18:00:00;2287;58.8;39
14.05.2020;18:10:00;1948;59.1;37
14.05.2020;18:20:00;2533;59.5;37
14.05.2020;18:30:00;2104;59.9;37
14.05.2020;18:40:00;1915;60.2;38
14.05.2020;18:50:00;1588;60.5;39
14.05.2020;19:00:00;1266;60.7;37
14.05.2020;19:10:00;868;60.9;37
14.05.2020;19:20:00;604;61.0;37
14.05.2020;19:30:00;411;61.1;37
14.05.2020;19:40:00;359;61.1;38
14.05.2020;19:50:00;276;61.2;38
14.05.2020;20:00:00;290;61.2;39
14.05.2020;20:10:00;164;61.3;39
14.05.2020;20:20:00;15;61.3;37
14.05.2020;20:30:00;10;61.3;37
14.05.2020;20:40:00;0;61.3;36
14.05.2020;20:50:00;6;61.3;36
15.05.2020;06:10:00;7;0;29
15.05.2020;06:20:00;23;0;30
15.05.2020;06:30:00;138;0;30
15.05.2020;06:40:00;267;0;31
15.05.2020;06:50:00;372;0.1;32
15.05.2020;07:00:00;429;0.1;32
15.05.2020;07:10:00;320;0.2;33
15.05.2020;07:20:00;289;0.2;33
15.05.2020;07:30:00;307;0.3;34
15.05.2020;07:40:00;552;0.4;34
15.05.2020;07:50:00;620;0.5;34
15.05.2020;08:00:00;601;0.6;34
15.05.2020;08:10:00;531;0.7;35
15.05.2020;08:20:00;595;0.8;35
15.05.2020;08:30:00;686;0.9;36
15.05.2020;08:40:00;847;1.0;36
15.05.2020;08:50:00;1296;1.2;37
15.05.2020;09:00:00;1248;1.4;37
15.05.2020;09:10:00;1189;1.6;38
15.05.2020;09:20:00;1211;1.8;38
15.05.2020;09:30:00;1425;2.0;38
15.05.2020;09:40:00;1772;2.3;39
15.05.2020;09:50:00;3116;2.8;35
15.05.2020;10:00:00;4805;3.5;37
15.05.2020;10:10:00;7015;4.6;35
15.05.2020;10:20:00;4436;5.5;38
15.05.2020;10:30:00;3405;6.1;35
15.05.2020;10:40:00;3442;6.6;36
15.05.2020;10:50:00;3503;7.2;38
15.05.2020;11:00:00;5047;7.9;35
15.05.2020;11:10:00;6378;8.9;38
15.05.2020;11:20:00;9208;10.3;37
15.05.2020;11:30:00;7926;11.8;35
15.05.2020;11:40:00;6646;12.9;38
15.05.2020;11:50:00;8255;14.2;37
15.05.2020;12:00:00;8768;15.6;35
15.05.2020;12:10:00;9670;17.1;35
15.05.2020;12:20:00;8826;18.7;36
15.05.2020;12:30:00;9446;20.3;38
15.05.2020;12:40:00;7839;21.7;37
15.05.2020;12:50:00;8284;23.0;35
15.05.2020;13:00:00;7567;24.2;38
15.05.2020;13:10:00;5789;25.4;36
15.05.2020;13:20:00;7413;26.5;37
15.05.2020;13:30:00;12010;28.2;38
15.05.2020;13:40:00;16590;30.7;38
15.05.2020;13:50:00;21241;33.9;36
15.05.2020;14:00:00;18914;37.4;37
15.05.2020;14:10:00;16229;39.8;38
15.05.2020;14:20:00;21135;43.0;37
15.05.2020;14:30:00;14061;45.5;36
15.05.2020;14:40:00;16263;48.1;35
15.05.2020;14:50:00;18287;51.1;35
15.05.2020;15:00:00;22818;54.7;37
15.05.2020;15:10:00;17353;57.7;35
15.05.2020;15:20:00;14330;60.7;35
15.05.2020;15:30:00;13250;62.6;38
15.05.2020;15:45:00;19225;66.8;38
15.05.2020;15:55:00;15578;69.5;35
15.05.2020;16:05:00;17501;72.5;36
15.05.2020;16:15:00;17595;75.4;35
15.05.2020;16:25:00;17397;78.4;35
15.05.2020;16:35:00;17828;81.4;35
15.05.2020;16:45:00;14694;84.0;37
15.05.2020;16:55:00;16805;86.7;35
15.05.2020;17:05:00;15695;89.4;38
15.05.2020;17:25:00;14130;94.5;36
15.05.2020;17:35:00;13228;96.8;38
15.05.2020;17:45:00;12496;98.9;38
15.05.2020;17:55:00;11407;100.8;37
15.05.2020;18:05:00;9970;102.5;36
15.05.2020;18:15:00;9589;104.1;35
15.05.2020;18:25:00;8447;105.6;35
15.05.2020;18:35:00;5986;106.7;38
15.05.2020;18:45:00;6138;107.7;35
15.05.2020;18:55:00;6781;108.8;38
15.05.2020;19:05:00;5411;109.6;36
15.05.2020;19:15:00;4163;110.4;39
15.05.2020;19:25:00;3428;111.0;36
15.05.2020;19:35:00;3087;111.5;37
15.05.2020;19:45:00;2915;112.0;39
15.05.2020;19:55:00;3053;112.5;35
15.05.2020;20:05:00;2099;112.9;37
15.05.2020;20:15:00;1345;113.1;38
15.05.2020;20:25:00;731;113.3;38
15.05.2020;20:35:00;448;113.4;38
15.05.2020;20:45:00;279;113.5;39
15.05.2020;20:55:00;147;113.5;39
15.05.2020;21:05:00;14;113.5;37
16.05.2020;05:40:00;151;0;29
16.05.2020;05:50:00;337;0;30
16.05.2020;06:10:00;1193;0.3;32
16.05.2020;06:20:00;2042;0.6;32
16.05.2020;06:30:00;2853;1.0;33
16.05.2020;06:40:00;3842;1.6;34
16.05.2020;06:50:00;5786;2.5;37
16.05.2020;07:00:00;7403;3.6;35
16.05.2020;07:10:00;8065;4.9;38
16.05.2020;07:20:00;11310;6.7;37
16.05.2020;07:30:00;7840;8.0;35
16.05.2020;07:40:00;9295;9.4;38
16.05.2020;07:50:00;17233;11.9;38
16.05.2020;08:00:00;24829;15.9;39
16.05.2020;08:10:00;27959;20.8;40
16.05.2020;08:20:00;26863;25.0;40
16.05.2020;08:30:00;34798;29.8;42
16.05.2020;08:40:00;35298;35.3;43
16.05.2020;08:50:00;27329;40.8;42
16.05.2020;09:00:00;36475;45.6;43
16.05.2020;09:10:00;37898;51.7;44
16.05.2020;09:20:00;26602;57.3;41
16.05.2020;09:30:00;43997;63.6;46
16.05.2020;09:40:00;44342;70.5;46
16.05.2020;09:50:00;33406;76.4;43
16.05.2020;10:00:00;34570;82.1;44
16.05.2020;10:10:00;39214;87.9;45
16.05.2020;10:20:00;36463;94.6;45
16.05.2020;10:30:00;35021;100.4;43
16.05.2020;10:40:00;34654;105.8;43
16.05.2020;10:50:00;34358;111.6;43
16.05.2020;11:00:00;29306;117.5;42
16.05.2020;11:10:00;42569;124.1;47
16.05.2020;11:20:00;33871;130.2;44
16.05.2020;11:30:00;34842;135.7;44
16.05.2020;11:40:00;26680;140.6;41
16.05.2020;11:50:00;30332;145.3;42
16.05.2020;12:00:00;34950;150.7;43
16.05.2020;12:10:00;37115;157.2;45
16.05.2020;12:20:00;24979;161.4;41
16.05.2020;12:30:00;20939;164.6;38
16.05.2020;12:40:00;43070;171.1;46
16.05.2020;12:50:00;34003;177.4;44
16.05.2020;13:00:00;38868;183.8;46
16.05.2020;13:10:00;46057;191.6;49
16.05.2020;13:20:00;41880;198.7;47
16.05.2020;13:30:00;34887;205.2;44
16.05.2020;13:40:00;42863;212.5;48
16.05.2020;13:50:00;29211;217.8;42
16.05.2020;14:00:00;39504;224.5;46
16.05.2020;14:10:00;35454;230.1;44
16.05.2020;14:20:00;42620;237.1;46
16.05.2020;14:30:00;39939;243.9;46
16.05.2020;14:40:00;30441;249.3;43
16.05.2020;14:50:00;29865;253.6;41
16.05.2020;15:00:00;36439;259.7;44
16.05.2020;15:10:00;30154;264.5;42
16.05.2020;15:20:00;28279;269.5;42
16.05.2020;15:30:00;30930;274.7;42
16.05.2020;15:40:00;30490;279.8;42
16.05.2020;15:50:00;28783;284.3;41
16.05.2020;16:00:00;26418;288.8;41
16.05.2020;16:10:00;24709;293.0;40
16.05.2020;16:20:00;23372;297.0;40
16.05.2020;16:30:00;21788;300.7;39
16.05.2020;16:40:00;19933;304.1;38
16.05.2020;16:50:00;19077;307.3;38
16.05.2020;17:00:00;17311;310.2;36
16.05.2020;17:10:00;17498;312.7;38
16.05.2020;17:20:00;13693;315.1;36
16.05.2020;17:30:00;12598;317.0;37
16.05.2020;17:40:00;11222;318.9;38
16.05.2020;17:50:00;9470;320.7;36
16.05.2020;18:00:00;6590;321.8;36
16.05.2020;18:10:00;5610;322.8;38
16.05.2020;18:20:00;4830;323.7;37
16.05.2020;18:30:00;4324;324.4;38
16.05.2020;18:40:00;4701;325.1;36
16.05.2020;18:50:00;5694;326.1;38
16.05.2020;19:00:00;6378;327.1;37
16.05.2020;19:10:00;4750;327.9;38
16.05.2020;19:20:00;5094;328.8;37
16.05.2020;19:30:00;5157;329.6;37
16.05.2020;19:40:00;4781;330.5;37
16.05.2020;19:50:00;3503;331.1;38
16.05.2020;20:00:00;2970;331.6;37
16.05.2020;20:10:00;2210;332.0;38
16.05.2020;20:20:00;1586;332.3;38
16.05.2020;20:30:00;1093;332.5;39
16.05.2020;20:40:00;657;332.6;39
16.05.2020;20:50:00;315;332.7;37
16.05.2020;21:00:00;170;332.7;38
16.05.2020;21:10:00;0;332.7;38
17.05.2020;05:50:00;284;0;31
17.05.2020;06:00:00;556;0.1;32
17.05.2020;06:10:00;869;0.2;32
17.05.2020;06:20:00;1194;0.4;33
17.05.2020;06:30:00;1607;0.6;33
17.05.2020;06:40:00;2330;1.0;34
17.05.2020;06:50:00;2890;1.4;35
17.05.2020;07:00:00;5784;2.2;37
17.05.2020;07:10:00;12989;3.9;35
17.05.2020;07:20:00;16018;6.4;36
17.05.2020;07:30:00;22417;9.8;36
17.05.2020;07:40:00;25121;13.9;38
17.05.2020;07:50:00;27299;18.4;40
17.05.2020;08:00:00;29267;23.1;41
17.05.2020;08:10:00;30817;28.2;42
17.05.2020;08:20:00;32556;33.6;42
17.05.2020;08:30:00;34152;39.2;43
17.05.2020;08:40:00;35894;45.1;44
17.05.2020;08:50:00;37618;51.3;44
17.05.2020;09:00:00;39101;57.7;45
17.05.2020;09:10:00;40595;64.4;46
17.05.2020;09:20:00;41583;71.3;46
17.05.2020;09:30:00;42548;78.4;47
17.05.2020;09:40:00;43321;85.6;47
17.05.2020;09:50:00;44137;92.9;48
17.05.2020;10:00:00;44381;100.3;48
17.05.2020;10:10:00;44577;107.7;48
17.05.2020;10:20:00;44853;115.2;48
17.05.2020;10:30:00;45713;122.8;49
17.05.2020;10:40:00;46034;130.5;49
17.05.2020;10:50:00;46750;138.2;49
17.05.2020;11:00:00;46676;146.0;49
17.05.2020;11:10:00;47256;153.8;50
17.05.2020;11:20:00;47374;161.7;50
17.05.2020;11:30:00;47393;169.6;50
17.05.2020;11:40:00;47412;177.5;50
17.05.2020;11:50:00;47318;185.4;50
17.05.2020;12:00:00;46386;193.2;49
17.05.2020;12:10:00;46732;201.0;50
17.05.2020;12:20:00;46917;208.8;50
17.05.2020;12:30:00;46676;216.6;50
17.05.2020;12:40:00;46323;224.3;49
17.05.2020;12:50:00;46225;232.0;49
17.05.2020;13:00:00;45130;239.6;49
17.05.2020;13:10:00;45146;247.2;49
17.05.2020;13:20:00;44272;254.5;48
17.05.2020;13:30:00;43674;261.9;48
17.05.2020;13:40:00;42687;269.0;48
17.05.2020;13:50:00;41888;276.1;47
17.05.2020;14:00:00;40861;282.9;47
17.05.2020;14:10:00;39913;289.6;47
17.05.2020;14:20:00;38917;296.2;46
17.05.2020;14:30:00;38159;302.6;46
17.05.2020;14:40:00;36871;308.7;45
17.05.2020;14:50:00;35695;314.8;45
17.05.2020;15:00:00;34499;320.6;44
17.05.2020;15:10:00;33297;326.2;44
17.05.2020;15:20:00;31732;331.5;43
17.05.2020;15:30:00;30472;336.6;43
17.05.2020;15:40:00;29143;341.5;42
17.05.2020;15:50:00;27746;346.2;42
17.05.2020;16:00:00;26086;350.7;41
17.05.2020;16:10:00;24705;354.8;41
17.05.2020;16:20:00;23095;358.7;40
17.05.2020;16:30:00;21330;362.4;39
17.05.2020;16:40:00;19720;365.7;38
17.05.2020;16:50:00;17895;368.8;37
17.05.2020;17:00:00;16203;371.6;36
17.05.2020;17:10:00;14463;374.1;36
17.05.2020;17:20:00;12682;376.2;38
17.05.2020;17:30:00;10896;378.1;37
17.05.2020;17:40:00;9229;379.7;36
17.05.2020;17:50:00;7633;381.1;36
17.05.2020;18:00:00;6134;382.2;38
17.05.2020;18:10:00;4783;383.0;37
17.05.2020;18:20:00;3718;383.7;39
17.05.2020;18:30:00;2948;384.2;37
17.05.2020;18:40:00;2511;384.6;38
17.05.2020;18:50:00;2216;385.0;39
17.05.2020;19:00:00;2102;385.4;37
17.05.2020;19:10:00;1978;385.7;38
17.05.2020;19:20:00;1800;386.0;39
17.05.2020;19:30:00;1679;386.3;39
17.05.2020;19:40:00;1549;386.6;37
17.05.2020;19:50:00;1293;386.8;38
17.05.2020;20:00:00;1157;387.0;39
17.05.2020;20:10:00;895;387.2;39
17.05.2020;20:20:00;760;387.3;39
17.05.2020;20:30:00;545;387.4;39
17.05.2020;20:40:00;384;387.5;37
17.05.2020;20:50:00;229;387.5;38
17.05.2020;21:00:00;60;387.5;38
17.05.2020;21:10:00;0;387.5;38
18.05.2020;05:35:00;19;0;29
18.05.2020;05:45:00;205;0;30
18.05.2020;05:55:00;426;0;32
18.05.2020;06:05:00;684;0.1;32
18.05.2020;06:15:00;948;0.3;33
18.05.2020;06:25:00;1202;0.5;33
18.05.2020;06:35:00;1540;0.7;34
18.05.2020;06:45:00;4546;1.3;35
18.05.2020;06:55:00;5317;2.1;37
18.05.2020;07:05:00;8558;3.3;36
18.05.2020;07:15:00;15717;5.8;35
18.05.2020;07:25:00;19828;8.8;38
18.05.2020;07:35:00;24737;12.8;39
18.05.2020;07:45:00;26430;17.2;40
18.05.2020;07:55:00;28279;21.8;41
18.05.2020;08:05:00;30128;26.7;41
18.05.2020;08:15:00;31953;32.0;42
18.05.2020;08:25:00;33616;37.5;43
18.05.2020;08:35:00;35151;43.3;43
18.05.2020;08:45:00;36710;49.3;44
18.05.2020;08:55:00;38250;55.6;45
18.05.2020;09:05:00;39639;62.2;45
18.05.2020;09:15:00;40668;68.9;46
18.05.2020;09:25:00;41610;75.9;46
18.05.2020;09:35:00;42213;82.9;47
18.05.2020;09:45:00;42977;89.9;47
18.05.2020;09:55:00;43469;97.2;48
18.05.2020;10:05:00;43733;104.4;48
18.05.2020;10:15:00;44059;111.8;48
18.05.2020;10:25:00;44588;119.2;48
18.05.2020;10:35:00;44732;126.6;48
18.05.2020;10:45:00;45061;134.1;48
18.05.2020;10:55:00;45270;141.7;49
18.05.2020;11:05:00;45769;149.3;49
18.05.2020;11:15:00;45976;156.9;49
18.05.2020;11:25:00;45838;164.6;49
18.05.2020;11:35:00;45890;172.2;49
18.05.2020;11:45:00;45721;179.8;49
18.05.2020;11:55:00;45844;187.5;49
18.05.2020;12:05:00;45735;195.1;49
18.05.2020;12:15:00;45597;202.7;49
18.05.2020;12:25:00;45043;210.2;49
18.05.2020;12:35:00;45178;217.7;49
18.05.2020;12:45:00;44551;225.2;48
18.05.2020;12:55:00;44582;232.6;48
18.05.2020;13:05:00;43797;240.0;48
18.05.2020;13:15:00;43780;247.2;48
18.05.2020;13:25:00;43282;254.5;48
18.05.2020;13:35:00;42298;261.6;48
18.05.2020;13:45:00;41565;268.5;47
18.05.2020;13:55:00;41305;275.4;47
18.05.2020;14:05:00;39862;282.1;47
18.05.2020;14:15:00;39022;288.6;46
18.05.2020;14:25:00;38154;295.0;46
18.05.2020;14:35:00;37575;301.3;46
18.05.2020;14:45:00;35840;307.4;45
18.05.2020;14:55:00;34863;313.2;45
18.05.2020;15:05:00;33587;318.9;44
18.05.2020;15:15:00;32154;324.3;44
18.05.2020;15:25:00;30833;329.5;43
18.05.2020;15:35:00;29563;334.5;43
18.05.2020;15:45:00;28431;339.3;42
18.05.2020;15:55:00;26666;343.8;42
18.05.2020;16:05:00;25040;348.0;41
18.05.2020;16:15:00;23560;352.0;40
18.05.2020;16:25:00;22007;355.8;40
18.05.2020;16:35:00;20177;359.2;39
18.05.2020;16:45:00;18464;362.4;38
18.05.2020;16:55:00;16730;365.2;37
18.05.2020;17:05:00;15204;367.8;36
18.05.2020;17:15:00;13434;370.2;36
18.05.2020;17:25:00;11682;372.2;37
18.05.2020;17:35:00;9975;373.9;38
18.05.2020;17:45:00;8399;375.4;37
18.05.2020;17:55:00;6809;376.6;36
18.05.2020;18:05:00;5502;377.6;39
18.05.2020;18:15:00;4303;378.3;37
18.05.2020;18:25:00;3428;378.9;39
18.05.2020;18:35:00;2817;379.4;37
18.05.2020;18:45:00;2453;379.9;38
18.05.2020;18:55:00;2207;380.2;39
18.05.2020;19:05:00;2105;380.6;38
18.05.2020;19:15:00;1951;380.9;38
18.05.2020;19:25:00;1836;381.2;39
18.05.2020;19:35:00;1746;381.5;39
18.05.2020;19:45:00;1539;381.8;37
18.05.2020;19:55:00;1343;382.0;38
18.05.2020;20:05:00;1201;382.2;39
18.05.2020;20:15:00;1034;382.4;39
18.05.2020;20:25:00;652;382.5;39
18.05.2020;20:35:00;446;382.6;39
18.05.2020;20:45:00;298;382.7;37
18.05.2020;20:55:00;158;382.7;38
18.05.2020;21:05:00;17;382.7;38
19.05.2020;05:30:00;10;0;29
19.05.2020;05:40:00;37;0;30
19.05.2020;05:50:00;304;0;31
19.05.2020;06:10:00;831;0.2;33
19.05.2020;06:30:00;1385;0.6;34
19.05.2020;06:40:00;2829;1.0;34
19.05.2020;06:50:00;4865;1.7;36
19.05.2020;07:20:00;16140;7.1;36
19.05.2020;07:40:00;24370;14.6;39
19.05.2020;07:50:00;26261;18.9;40
19.05.2020;08:00:00;28000;23.4;41
19.05.2020;08:10:00;30110;28.4;41
19.05.2020;08:20:00;32025;33.6;42
19.05.2020;08:30:00;33662;39.2;43
19.05.2020;08:40:00;35059;45.0;43
19.05.2020;08:50:00;36821;51.0;44
19.05.2020;09:00:00;38151;57.3;45
19.05.2020;09:10:00;39519;63.8;45
19.05.2020;09:20:00;40490;70.5;46
19.05.2020;09:30:00;41298;77.4;46
19.05.2020;09:40:00;41888;84.4;47
19.05.2020;09:50:00;42430;91.4;47
19.05.2020;10:00:00;42685;98.5;47
19.05.2020;10:10:00;43445;105.7;47
19.05.2020;10:20:00;43504;112.9;48
19.05.2020;10:30:00;44211;120.3;48
19.05.2020;10:40:00;44399;127.7;48
19.05.2020;10:50:00;44766;135.1;48
19.05.2020;11:00:00;45116;142.6;48
19.05.2020;11:10:00;45243;150.2;49
19.05.2020;11:20:00;45246;157.7;49
19.05.2020;11:30:00;45495;165.3;49
19.05.2020;11:40:00;45782;172.9;49
19.05.2020;11:50:00;45557;180.5;49
19.05.2020;12:00:00;45572;188.1;49
19.05.2020;12:10:00;45382;195.7;49
19.05.2020;12:20:00;44338;203.1;48
19.05.2020;12:30:00;45374;210.6;49
19.05.2020;12:40:00;45061;218.1;49
19.05.2020;12:50:00;44462;225.6;49
19.05.2020;13:00:00;42336;232.1;47
19.05.2020;13:10:00;35675;238.8;47
19.05.2020;13:20:00;45570;245.4;48
19.05.2020;13:30:00;35892;251.0;46
19.05.2020;13:40:00;25492;256.3;42
19.05.2020;13:50:00;44350;262.3;47
19.05.2020;14:00:00;20535;267.7;42
19.05.2020;14:10:00;42468;273.9;47
19.05.2020;14:20:00;34980;279.5;45
19.05.2020;14:30:00;39841;286.3;46
19.05.2020;14:40:00;39418;292.6;46
19.05.2020;14:50:00;25896;297.3;41
19.05.2020;15:00:00;38506;303.8;46
19.05.2020;15:10:00;22609;308.8;41
19.05.2020;15:20:00;19023;312.5;40
19.05.2020;15:30:00;27769;317.8;42
19.05.2020;15:40:00;12251;322.0;39
20.05.2020;06:25:00;1457;0.5;34
20.05.2020;08:55:00;16934;16.8;37
20.05.2020;09:05:00;32964;21.3;41
20.05.2020;09:15:00;24694;25.6;39
20.05.2020;09:55:00;43113;48.2;47
20.05.2020;11:25:00;46590;115.2;49
20.05.2020;11:35:00;48644;123.2;50
20.05.2020;11:45:00;49730;131.4;51
20.05.2020;11:55:00;38464;138.8;49
20.05.2020;12:05:00;26153;143.5;42
20.05.2020;12:15:00;26868;148.0;42
20.05.2020;12:25:00;30503;153.0;43
20.05.2020;12:35:00;49580;160.6;50
20.05.2020;12:45:00;31390;166.5;44
20.05.2020;12:55:00;48627;173.2;49
20.05.2020;13:05:00;29767;178.0;42
20.05.2020;13:15:00;24699;182.2;41
20.05.2020;13:25:00;28894;186.4;41
20.05.2020;13:35:00;46155;193.2;48
20.05.2020;13:45:00;47636;200.0;48
20.05.2020;13:55:00;38889;207.0;47
20.05.2020;14:05:00;43085;213.9;48
20.05.2020;14:15:00;40565;220.8;47
20.05.2020;14:25:00;39760;227.4;47
20.05.2020;14:35:00;39122;233.9;46
20.05.2020;14:45:00;39949;240.6;47
20.05.2020;14:55:00;39749;247.1;46
20.05.2020;15:05:00;37046;253.1;45
20.05.2020;15:15:00;33594;258.7;45
20.05.2020;15:25:00;31689;264.1;44
20.05.2020;15:35:00;30486;269.1;43
20.05.2020;15:45:00;29345;274.1;43
20.05.2020;15:55:00;28096;278.8;42
20.05.2020;16:05:00;26358;283.3;42
20.05.2020;16:15:00;24119;287.4;41
20.05.2020;16:25:00;22688;291.2;40
20.05.2020;16:35:00;21142;294.8;40
20.05.2020;16:45:00;16040;297.6;38
20.05.2020;16:55:00;17773;300.6;37
20.05.2020;17:05:00;16287;303.3;37
20.05.2020;17:15:00;14310;305.8;36
20.05.2020;17:25:00;14557;308.3;36
20.05.2020;17:35:00;8942;310.2;36
20.05.2020;17:45:00;7877;311.7;36
20.05.2020;17:55:00;8332;313.1;38
20.05.2020;18:05:00;9080;314.6;38
20.05.2020;18:15:00;3978;315.5;37
20.05.2020;18:25:00;4025;316.2;39
20.05.2020;18:35:00;5724;317.1;37
20.05.2020;18:45:00;7132;318.3;37
20.05.2020;18:55:00;7528;319.5;38
20.05.2020;19:05:00;6257;320.6;37
20.05.2020;19:15:00;3876;321.4;39
20.05.2020;19:25:00;2005;321.7;37
20.05.2020;19:35:00;1776;322.0;38
20.05.2020;19:45:00;1593;322.3;39
20.05.2020;19:55:00;1388;322.6;39
20.05.2020;20:05:00;1107;322.8;37
20.05.2020;20:15:00;833;322.9;38
20.05.2020;20:25:00;619;323.0;39
20.05.2020;20:35:00;474;323.1;39
20.05.2020;20:45:00;339;323.2;39
20.05.2020;20:55:00;201;323.2;38
20.05.2020;21:05:00;21;323.2;38
20.05.2020;21:15:00;0;323.2;38
21.05.2020;05:35:00;18;0;30
21.05.2020;05:45:00;225;0;31
21.05.2020;05:55:00;487;0;32
21.05.2020;06:15:00;959;0.3;33
21.05.2020;06:25:00;1342;0.5;34
21.05.2020;06:35:00;1870;0.8;34
21.05.2020;06:45:00;7286;1.8;37
21.05.2020;06:55:00;8657;3.2;35
21.05.2020;07:05:00;12673;5.0;37
21.05.2020;07:15:00;16183;7.5;38
21.05.2020;07:25:00;21566;10.8;36
21.05.2020;07:35:00;21357;14.4;37
21.05.2020;07:45:00;25919;18.3;39
21.05.2020;07:55:00;27725;22.9;41
21.05.2020;08:05:00;29782;27.8;41
21.05.2020;08:15:00;31376;33.0;42
21.05.2020;08:25:00;33158;38.5;43
21.05.2020;08:35:00;35051;44.3;43
21.05.2020;08:45:00;36578;50.3;44
21.05.2020;08:55:00;38201;56.6;45
21.05.2020;09:05:00;39456;63.1;45
21.05.2020;09:15:00;40289;69.8;46
21.05.2020;09:25:00;41242;76.6;46
21.05.2020;09:35:00;41990;83.6;47
21.05.2020;09:45:00;42480;90.7;47
21.05.2020;09:55:00;42708;97.7;47
21.05.2020;10:05:00;43164;104.9;47
21.05.2020;10:15:00;43475;112.2;47
21.05.2020;10:25:00;43614;119.4;48
21.05.2020;10:35:00;44325;126.8;48
21.05.2020;10:45:00;44833;134.2;48
21.05.2020;10:55:00;45206;141.8;49
21.05.2020;11:05:00;45331;149.3;49
21.05.2020;11:15:00;45140;156.9;49
21.05.2020;11:25:00;45041;164.4;49
21.05.2020;11:35:00;45459;172.0;49
21.05.2020;11:45:00;45703;179.5;49
21.05.2020;11:55:00;45295;187.1;49
21.05.2020;12:05:00;45450;194.7;49
21.05.2020;12:15:00;44945;202.3;49
21.05.2020;12:25:00;44912;209.7;49
21.05.2020;12:35:00;44646;217.1;49
21.05.2020;12:45:00;44452;224.6;49
21.05.2020;12:55:00;43811;231.9;48
21.05.2020;13:05:00;43730;239.2;48
21.05.2020;13:15:00;43468;246.4;48
21.05.2020;13:25:00;42617;253.6;48
21.05.2020;13:35:00;42170;260.6;48
21.05.2020;13:45:00;41525;267.5;48
21.05.2020;13:55:00;40465;274.3;47
21.05.2020;14:05:00;39717;280.9;47
21.05.2020;14:15:00;38545;287.4;47
21.05.2020;14:25:00;37406;293.7;46
21.05.2020;14:35:00;36789;299.9;46
21.05.2020;14:45:00;35731;305.9;45
21.05.2020;14:55:00;34865;311.7;45
21.05.2020;15:05:00;33328;317.3;44
21.05.2020;15:15:00;32269;322.7;44
21.05.2020;15:25:00;30710;327.9;43
21.05.2020;15:35:00;29340;332.9;43
21.05.2020;15:45:00;27983;337.6;42
21.05.2020;15:55:00;26643;342.1;42
21.05.2020;16:05:00;24938;346.3;41
21.05.2020;16:15:00;23545;350.3;41
21.05.2020;16:25:00;21986;354.0;40
21.05.2020;16:35:00;20274;357.5;40
21.05.2020;16:45:00;18721;360.6;39
21.05.2020;16:55:00;17006;363.6;38
21.05.2020;17:05:00;15274;366.2;37
21.05.2020;17:15:00;13544;368.5;37
21.05.2020;17:25:00;11863;370.6;38
21.05.2020;17:35:00;10215;372.3;37
21.05.2020;17:45:00;8589;373.8;37
21.05.2020;17:55:00;7108;375.1;38
21.05.2020;18:05:00;5771;376.1;37
21.05.2020;18:15:00;4551;376.9;39
21.05.2020;18:25:00;3614;377.6;38
21.05.2020;18:35:00;2959;378.1;39
21.05.2020;18:45:00;2563;378.5;38
21.05.2020;18:55:00;1303;378.8;38
21.05.2020;19:05:00;1825;379.1;39
21.05.2020;19:15:00;2787;379.5;39
21.05.2020;19:25:00;3136;380.0;38
21.05.2020;19:35:00;2638;380.5;39
21.05.2020;19:45:00;1785;380.8;39
21.05.2020;19:55:00;1619;381.1;38
21.05.2020;20:05:00;1214;381.3;39
21.05.2020;20:15:00;863;381.4;39
21.05.2020;20:25:00;826;381.6;39
21.05.2020;20:35:00;620;381.7;39
21.05.2020;20:45:00;416;381.8;38
21.05.2020;20:55:00;257;381.8;39
21.05.2020;21:05:00;60;381.8;39
21.05.2020;21:15:00;0;381.8;38
22.05.2020;05:25:00;8;0;29
22.05.2020;05:35:00;21;0;31
22.05.2020;05:45:00;243;0;31
22.05.2020;05:55:00;509;0.1;32
22.05.2020;06:05:00;1027;0.2;33
22.05.2020;06:15:00;1969;0.5;34
22.05.2020;06:25:00;2400;0.8;34
22.05.2020;06:35:00;3140;1.3;35
22.05.2020;06:45:00;2933;1.8;37
22.05.2020;06:55:00;4507;2.5;38
22.05.2020;07:05:00;13067;4.1;37
22.05.2020;07:15:00;15916;6.6;35
22.05.2020;07:25:00;16908;9.3;38
22.05.2020;07:35:00;15326;12.0;35
22.05.2020;07:45:00;22367;15.2;39
22.05.2020;07:55:00;18234;19.0;38
22.05.2020;08:05:00;20244;22.3;37
22.05.2020;08:15:00;29126;26.9;41
22.05.2020;08:25:00;27255;31.7;40
22.05.2020;08:35:00;23255;35.6;39
22.05.2020;08:45:00;31217;40.5;42
22.05.2020;08:55:00;35936;46.2;44
22.05.2020;09:05:00;36010;52.2;44
22.05.2020;09:15:00;34156;58.0;43
22.05.2020;09:25:00;36672;64.1;44
22.05.2020;09:35:00;35643;70.2;44
22.05.2020;09:45:00;35591;76.0;44
22.05.2020;09:55:00;31031;81.3;42
22.05.2020;10:05:00;29163;86.5;42
22.05.2020;10:15:00;29174;91.3;42
22.05.2020;10:25:00;30179;96.1;42
22.05.2020;10:35:00;33977;101.9;43
22.05.2020;10:45:00;27863;106.6;41
22.05.2020;10:55:00;33193;111.8;43
22.05.2020;11:05:00;28863;117.0;42
22.05.2020;11:15:00;25663;121.4;41
22.05.2020;11:25:00;27835;126.1;41
22.05.2020;11:35:00;32436;131.1;42
22.05.2020;11:45:00;32227;136.6;43
22.05.2020;11:55:00;30908;141.8;43
22.05.2020;12:05:00;29722;146.8;42
22.05.2020;12:15:00;29640;151.7;42
22.05.2020;12:25:00;30338;156.7;43
22.05.2020;12:35:00;27166;161.4;41
22.05.2020;12:45:00;26323;165.8;41
22.05.2020;12:55:00;29969;170.6;42
22.05.2020;13:05:00;31222;175.6;42
22.05.2020;13:15:00;27648;180.3;42